Camp Pendleton, CA

8:39 PM PDT on June 22, 2017 (GMT -0700)
Camp Pendleton Marine Corps Air Station

Weather History for KNFG - March, 2012

Change the Weather History Date:

Sunday, March 25, 2012

  Actual Average Record
Temperature  
Mean Temperature 53 °F -  
Max Temperature 64 °F 65 °F 80 °F (1997)
Min Temperature 42 °F 45 °F 35 °F (2009)
Degree Days  
Heating Degree Days 12    
Growing Degree Days 3 (Base 50)    
Moisture  
Dew Point 45 °F    
Average Humidity 80    
Maximum Humidity 87    
Minimum Humidity 54    
Precipitation  
Precipitation 0.51 in - - ()
Sea Level Pressure  
Sea Level Pressure 29.93 in    
Wind  
Wind Speed 4 mph (SSW)    
Max Wind Speed 20 mph    
Max Gust Speed 34 mph    
Visibility 8 miles    
Events Rain    
Averages and records for this station are not official NWS values.
T = Trace of Precipitation, MM = Missing Value Source: NWS Daily Summary

Daily Weather History Graph

Daily Weather History Graph

Search for Another Location

Airport or City:

Trip Planner

Search our weather history database for the weather conditions in past years. The results will help you decide how hot, cold, wet, or windy it might be!

Date:

Astronomy

Mar. 25, 2012 Rise Set
Actual Time 6:45 AM PDT 7:05 PM PDT
Civil Twilight 6:20 AM PDT 7:29 PM PDT
Nautical Twilight 5:51 AM PDT 7:59 PM PDT
Astronomical Twilight 5:22 AM PDT 8:28 PM PDT
Moon 8:11 AM PDT (3/25) 10:12 PM PDT (3/25)
Length of Visible Light 13h 09m
Length of Day
12h 19m
Waxing Crescent, 9% of the Moon is Illuminated
Mar 25
Waxing Crescent
Mar 30
First Quarter
Apr 6
Full
Apr 13
Last Quarter
Apr 21
New

Hourly Weather History & Observations

Time (PDT) Temp. Windchill Dew Point Humidity Pressure Visibility Wind Dir Wind Speed Gust Speed Precip Events Conditions
12:08 AM 48.2 °F - 42.8 °F 82% 29.97 in 10.0 mi Calm Calm - N/A   Mostly Cloudy
12:19 AM 46.4 °F - 42.8 °F 87% 29.97 in 10.0 mi Calm Calm - N/A   Scattered Clouds
12:54 AM 46.0 °F 44.8 °F 41.0 °F 83% 29.97 in 10.0 mi ENE 3.5 mph - N/A   Scattered Clouds
1:46 AM 44.6 °F 43.1 °F 39.2 °F 81% 29.96 in 10.0 mi East 3.5 mph - N/A   Mostly Cloudy
1:54 AM 46.0 °F - 41.0 °F 83% 29.96 in 10.0 mi Calm Calm - N/A   Scattered Clouds
2:30 AM 44.6 °F 43.1 °F 39.2 °F 81% 29.96 in 10.0 mi WNW 3.5 mph - N/A   Mostly Cloudy
2:54 AM 44.1 °F - 39.0 °F 82% 29.95 in 10.0 mi Calm Calm - N/A   Mostly Cloudy
3:43 AM 46.4 °F - 41.0 °F 81% 29.94 in 10.0 mi Calm Calm - N/A   Partly Cloudy
3:54 AM 43.0 °F 41.3 °F 39.0 °F 86% 29.94 in 10.0 mi NW 3.5 mph - N/A   Clear
4:54 AM 42.1 °F - 37.9 °F 85% 29.93 in 9.0 mi Calm Calm - N/A   Clear
6:54 AM 42.1 °F - 37.0 °F 82% 29.91 in 10.0 mi Calm Calm - N/A   Clear
7:54 AM 45.0 °F - 41.0 °F 86% 29.93 in 10.0 mi Calm Calm - N/A   Clear
8:54 AM 52.0 °F - 46.0 °F 80% 29.93 in 10.0 mi Calm Calm - N/A   Clear
9:54 AM 57.0 °F - 46.0 °F 67% 29.93 in 10.0 mi Variable 3.5 mph - N/A   Scattered Clouds
10:54 AM 61.0 °F - 44.1 °F 54% 29.92 in 10.0 mi South 5.8 mph - N/A   Mostly Cloudy
11:54 AM 64.0 °F - 46.9 °F 54% 29.91 in 10.0 mi SSW 9.2 mph - N/A   Overcast
12:54 PM 63.0 °F - 46.9 °F 56% 29.90 in 10.0 mi South 10.4 mph 19.6 mph N/A   Overcast
1:54 PM 62.1 °F - 46.0 °F 56% 29.89 in 10.0 mi South 18.4 mph 27.6 mph N/A   Overcast
2:54 PM 61.0 °F - 46.0 °F 58% 29.88 in 10.0 mi South 15.0 mph 26.5 mph N/A   Overcast
3:54 PM 57.9 °F - 48.9 °F 72% 29.86 in 5.0 mi South 19.6 mph 34.5 mph 0.02 in Rain Light Rain
4:25 PM 55.4 °F - 50.0 °F 82% 29.89 in 1.5 mi SW 17.3 mph 29.9 mph 0.10 in Rain Rain
4:31 PM 53.6 °F - 48.2 °F 82% 29.88 in 0.8 mi SW 13.8 mph 28.8 mph 0.15 in Rain Heavy Rain
4:33 PM 53.6 °F - 48.2 °F 82% 29.88 in 1.0 mi SW 12.7 mph 28.8 mph 0.15 in Rain Heavy Rain
4:38 PM 53.6 °F - 48.2 °F 82% 29.88 in 2.0 mi SW 12.7 mph 20.7 mph 0.16 in Rain Rain
4:49 PM 53.6 °F - 48.2 °F 82% 29.88 in 3.0 mi SSW 12.7 mph 21.9 mph 0.18 in Rain Rain
4:54 PM 53.1 °F - 48.9 °F 86% 29.89 in 2.5 mi SW 13.8 mph 23.0 mph 0.20 in Rain Rain
5:06 PM 53.6 °F - 48.2 °F 82% 29.90 in 3.0 mi West 13.8 mph 23.0 mph 0.02 in Rain Light Rain
5:43 PM 51.8 °F - 46.4 °F 82% 29.91 in 4.0 mi West 6.9 mph 17.3 mph 0.06 in Rain Light Rain
5:54 PM 51.1 °F - 46.0 °F 83% 29.93 in 2.0 mi SW 6.9 mph - 0.09 in Rain Rain
6:02 PM 50.0 °F - 46.4 °F 87% 29.92 in 1.5 mi SW 3.5 mph - 0.04 in Rain Rain
6:16 PM 50.0 °F - 46.4 °F 87% 29.92 in 3.0 mi Calm Calm - 0.07 in Rain Light Rain
6:54 PM 50.0 °F - 46.0 °F 86% 29.93 in 10.0 mi East 3.5 mph - 0.09 in   Overcast
7:35 PM 51.8 °F - 46.4 °F 82% 29.94 in 10.0 mi NNE 3.5 mph - N/A   Overcast
7:54 PM 51.1 °F - 46.0 °F 83% 29.96 in 10.0 mi Calm Calm - N/A   Overcast
8:26 PM - - - N/A% - - North - - N/A   Unknown
8:54 PM 50.0 °F - 46.0 °F 86% 29.97 in 10.0 mi Calm Calm - N/A   Overcast
9:10 PM 50.0 °F - 46.4 °F 87% 29.98 in 10.0 mi Calm Calm - N/A   Overcast
9:47 PM 51.8 °F - 46.4 °F 82% 29.98 in 10.0 mi Calm Calm - N/A   Mostly Cloudy
9:54 PM 50.0 °F - 46.0 °F 86% 29.98 in 10.0 mi Calm Calm - N/A   Mostly Cloudy
10:30 PM 50.0 °F - 46.4 °F 87% 29.98 in 10.0 mi Calm Calm - N/A   Overcast
10:54 PM 52.0 °F - 46.9 °F 83% 29.97 in 10.0 mi SSE 5.8 mph - 0.01 in Rain Light Rain
11:28 PM 51.8 °F - 46.4 °F 82% 29.98 in 10.0 mi Calm Calm - 0.00 in   Overcast
11:43 PM 53.6 °F - 48.2 °F 82% 29.98 in 8.0 mi South 9.2 mph 17.3 mph 0.01 in Rain Light Rain
11:54 PM 53.1 °F - 48.0 °F 83% 29.96 in 3.0 mi WNW 5.8 mph - 0.10 in Rain Rain